Location: Fauquembergues
(50.6005°N, 2.0987°E)
Time: 11:30:10
(UTC+00:00)

Meteor 1-19 Rocket - Pass Details

Date: 24 October 2020
Orbit: 809 x 926 km, 81.2° (Epoch: 28 November)

Event Time Altitude Azimuth Distance (km) Brightness Sun altitude
Exits shadow 02:54:14 13° 344° (NNW) 2,418 6.6 -34.2°
Drops below altitude 10° 02:55:06 10° 351° (N) 2,640 6.9 -34.0°
Sets 02:58:15 0° 7° (N) 3,587 7.8 -33.6°
